Time,TemperatureF,DewpointF,PressureIn,WindDirection,WindDirectionDegrees,WindSpeedMPH,WindSpeedGustMPH,Humidity,HourlyPrecipIn,Conditions,Clouds,dailyrainin,SoftwareType,DateUTC
2013-01-23 00:11:00,59.1,46.0,30.24,East,95,1.0,8.0,62,0.00,,,0.00,weatherlink.com 1.10,2013-01-23 05:11:00,
2013-01-23 00:26:00,59.0,46.0,30.23,NE,53,4.0,10.0,63,0.00,,,0.00,weatherlink.com 1.10,2013-01-23 05:26:00,
2013-01-23 00:42:00,58.7,46.0,30.22,NNE,17,3.0,10.0,64,0.00,,,0.00,weatherlink.com 1.10,2013-01-23 05:42:00,
2013-01-23 00:56:00,58.6,47.0,30.23,East,92,6.0,7.0,66,0.00,,,0.00,weatherlink.com 1.10,2013-01-23 05:56:00,
2013-01-23 01:12:00,58.5,47.0,30.23,North,360,0.0,5.0,66,0.00,,,0.00,weatherlink.com 1.10,2013-01-23 06:12:00,
2013-01-23 01:27:00,58.5,47.0,30.23,ENE,62,1.0,7.0,67,0.00,,,0.00,weatherlink.com 1.10,2013-01-23 06:27:00,
2013-01-23 01:43:00,58.5,47.0,30.23,NE,46,1.0,7.0,67,0.00,,,0.00,weatherlink.com 1.10,2013-01-23 06:43:00,
2013-01-23 01:58:00,58.4,47.0,30.22,NNE,19,2.0,8.0,67,0.00,,,0.00,weatherlink.com 1.10,2013-01-23 06:58:00,
2013-01-23 02:12:00,58.3,48.0,30.23,NE,42,3.0,7.0,68,0.00,,,0.00,weatherlink.com 1.10,2013-01-23 07:12:00,
2013-01-23 02:28:00,58.2,48.0,30.23,NNE,32,1.0,8.0,69,0.00,,,0.00,weatherlink.com 1.10,2013-01-23 07:28:00,
2013-01-23 02:42:00,58.0,48.0,30.23,North,5,3.0,8.0,69,0.00,,,0.00,weatherlink.com 1.10,2013-01-23 07:42:00,
2013-01-23 02:57:00,57.8,48.0,30.22,NNE,32,3.0,7.0,69,0.00,,,0.00,weatherlink.com 1.10,2013-01-23 07:57:00,
2013-01-23 03:12:00,57.8,48.0,30.22,NNW,336,5.0,8.0,70,0.00,,,0.00,weatherlink.com 1.10,2013-01-23 08:12:00,
2013-01-23 03:28:00,57.6,47.0,30.23,NNW,334,3.0,10.0,69,0.00,,,0.00,weatherlink.com 1.10,2013-01-23 08:28:00,
2013-01-23 03:43:00,57.3,48.0,30.23,North,5,1.0,8.0,70,0.00,,,0.00,weatherlink.com 1.10,2013-01-23 08:43:00,
2013-01-23 03:58:00,56.8,47.0,30.22,NE,46,2.0,10.0,70,0.00,,,0.00,weatherlink.com 1.10,2013-01-23 08:58:00,
2013-01-23 04:13:00,56.9,48.0,30.23,NW,304,1.0,9.0,71,0.00,,,0.00,weatherlink.com 1.10,2013-01-23 09:13:00,
2013-01-23 04:28:00,56.9,47.0,30.23,North,360,3.0,7.0,70,0.00,,,0.00,weatherlink.com 1.10,2013-01-23 09:28:00,
2013-01-23 04:44:00,57.1,47.0,30.23,NNE,24,3.0,6.0,70,0.00,,,0.00,weatherlink.com 1.10,2013-01-23 09:44:00,
2013-01-23 04:59:00,56.9,47.0,30.23,NNW,339,3.0,10.0,69,0.00,,,0.00,weatherlink.com 1.10,2013-01-23 09:59:00,
2013-01-23 05:14:00,56.8,47.0,30.23,NNW,338,2.0,8.0,69,0.00,,,0.00,weatherlink.com 1.10,2013-01-23 10:14:00,
2013-01-23 05:29:00,56.0,45.0,30.24,North,360,2.0,7.0,66,0.00,,,0.00,weatherlink.com 1.10,2013-01-23 10:29:00,
2013-01-23 05:44:00,55.8,43.0,30.24,NW,309,2.0,10.0,62,0.00,,,0.00,weatherlink.com 1.10,2013-01-23 10:44:00,
2013-01-23 05:59:00,55.7,42.0,30.25,NNE,13,2.0,12.0,61,0.00,,,0.00,weatherlink.com 1.10,2013-01-23 10:59:00,
2013-01-23 06:14:00,55.5,42.0,30.26,NNE,23,4.0,8.0,60,0.00,,,0.00,weatherlink.com 1.10,2013-01-23 11:14:00,
2013-01-23 06:29:00,55.3,41.0,30.26,NE,40,9.0,9.0,60,0.00,,,0.00,weatherlink.com 1.10,2013-01-23 11:29:00,
2013-01-23 06:44:00,55.1,42.0,30.27,NNE,18,1.0,7.0,61,0.00,,,0.00,weatherlink.com 1.10,2013-01-23 11:44:00,
2013-01-23 06:59:00,54.8,41.0,30.28,North,11,4.0,7.0,61,0.00,,,0.00,weatherlink.com 1.10,2013-01-23 11:59:00,
2013-01-23 07:14:00,54.6,42.0,30.28,NNE,22,1.0,7.0,62,0.00,,,0.00,weatherlink.com 1.10,2013-01-23 12:14:00,
2013-01-23 07:29:00,54.7,42.0,30.28,NNW,334,1.0,10.0,62,0.00,,,0.00,weatherlink.com 1.10,2013-01-23 12:29:00,
2013-01-23 07:47:00,54.9,41.0,30.29,NE,35,0.0,8.0,61,0.00,,,0.00,weatherlink.com 1.10,2013-01-23 12:47:00,
2013-01-23 08:00:00,55.3,42.0,30.29,NE,40,6.0,7.0,61,0.00,,,0.00,weatherlink.com 1.10,2013-01-23 13:00:00,
2013-01-23 08:16:00,56.3,42.0,30.29,North,9,1.0,7.0,59,0.00,,,0.00,weatherlink.com 1.10,2013-01-23 13:16:00,
2013-01-23 08:32:00,56.5,42.0,30.30,NNW,329,1.0,10.0,58,0.00,,,0.00,weatherlink.com 1.10,2013-01-23 13:32:00,
2013-01-23 08:46:00,57.1,43.0,30.30,NW,319,2.0,9.0,59,0.00,,,0.00,weatherlink.com 1.10,2013-01-23 13:46:00,
2013-01-23 09:01:00,58.8,42.0,30.31,NE,50,1.0,10.0,55,0.00,,,0.00,weatherlink.com 1.10,2013-01-23 14:01:00,
2013-01-23 09:16:00,58.2,43.0,30.31,ENE,63,1.0,8.0,57,0.00,,,0.00,weatherlink.com 1.10,2013-01-23 14:16:00,
2013-01-23 09:31:00,59.1,44.0,30.32,NE,50,3.0,9.0,57,0.00,,,0.00,weatherlink.com 1.10,2013-01-23 14:31:00,
2013-01-23 09:46:00,59.1,45.0,30.32,NE,34,5.0,9.0,60,0.00,,,0.00,weatherlink.com 1.10,2013-01-23 14:46:00,
2013-01-23 10:01:00,59.0,44.0,30.32,NW,304,3.0,9.0,57,0.00,,,0.00,weatherlink.com 1.10,2013-01-23 15:01:00,
2013-01-23 10:17:00,59.6,45.0,30.32,NNE,24,3.0,11.0,59,0.00,,,0.00,weatherlink.com 1.10,2013-01-23 15:17:00,
2013-01-23 10:32:00,60.8,45.0,30.32,ENE,68,3.0,8.0,57,0.00,,,0.00,weatherlink.com 1.10,2013-01-23 15:32:00,
2013-01-23 10:46:00,62.6,47.0,30.32,North,5,3.0,8.0,57,0.00,,,0.00,weatherlink.com 1.10,2013-01-23 15:46:00,
2013-01-23 11:01:00,63.8,48.0,30.32,NE,38,1.0,7.0,56,0.00,,,0.00,weatherlink.com 1.10,2013-01-23 16:01:00,
2013-01-23 11:17:00,64.6,48.0,30.32,ENE,61,4.0,8.0,55,0.00,,,0.00,weatherlink.com 1.10,2013-01-23 16:17:00,
2013-01-23 11:32:00,65.1,49.0,30.31,NE,51,1.0,10.0,57,0.00,,,0.00,weatherlink.com 1.10,2013-01-23 16:32:00,
2013-01-23 11:47:00,66.6,50.0,30.30,NNE,32,1.0,8.0,55,0.00,,,0.00,weatherlink.com 1.10,2013-01-23 16:47:00,
2013-01-23 12:03:00,67.8,50.0,30.30,NE,43,2.0,7.0,54,0.00,,,0.00,weatherlink.com 1.10,2013-01-23 17:03:00,
2013-01-23 12:17:00,68.4,51.0,30.29,NNE,24,3.0,6.0,55,0.00,,,0.00,weatherlink.com 1.10,2013-01-23 17:17:00,
2013-01-23 12:32:00,69.3,51.0,30.28,NNE,27,1.0,6.0,53,0.00,,,0.00,weatherlink.com 1.10,2013-01-23 17:32:00,
2013-01-23 12:47:00,70.8,52.0,30.27,East,86,1.0,6.0,51,0.00,,,0.00,weatherlink.com 1.10,2013-01-23 17:47:00,
2013-01-23 13:03:00,70.8,52.0,30.26,North,360,0.0,6.0,52,0.00,,,0.00,weatherlink.com 1.10,2013-01-23 18:03:00,
2013-01-23 13:18:00,71.3,52.0,30.26,ENE,57,2.0,6.0,51,0.00,,,0.00,weatherlink.com 1.10,2013-01-23 18:18:00,
2013-01-23 13:33:00,72.0,53.0,30.25,East,89,2.0,4.0,52,0.00,,,0.00,weatherlink.com 1.10,2013-01-23 18:33:00,
2013-01-23 13:48:00,72.4,53.0,30.25,NNE,27,3.0,6.0,51,0.00,,,0.00,weatherlink.com 1.10,2013-01-23 18:48:00,
2013-01-23 14:03:00,73.0,53.0,30.24,NE,48,2.0,6.0,49,0.00,,,0.00,weatherlink.com 1.10,2013-01-23 19:03:00,
2013-01-23 14:18:00,72.4,50.0,30.24,SE,138,3.0,7.0,46,0.00,,,0.00,weatherlink.com 1.10,2013-01-23 19:18:00,
2013-01-23 14:33:00,73.2,49.0,30.24,ESE,117,2.0,4.0,43,0.00,,,0.00,weatherlink.com 1.10,2013-01-23 19:33:00,
2013-01-23 14:48:00,73.1,49.0,30.23,ENE,58,1.0,4.0,43,0.00,,,0.00,weatherlink.com 1.10,2013-01-23 19:48:00,
2013-01-23 15:04:00,73.3,50.0,30.23,NE,49,0.0,4.0,44,0.00,,,0.00,weatherlink.com 1.10,2013-01-23 20:04:00,
2013-01-23 15:19:00,73.8,51.0,30.23,ESE,113,2.0,7.0,45,0.00,,,0.00,weatherlink.com 1.10,2013-01-23 20:19:00,
2013-01-23 15:34:00,73.2,49.0,30.23,NE,53,0.0,4.0,43,0.00,,,0.00,weatherlink.com 1.10,2013-01-23 20:34:00,
2013-01-23 15:49:00,73.1,49.0,30.22,ESE,107,0.0,7.0,43,0.00,,,0.00,weatherlink.com 1.10,2013-01-23 20:49:00,
2013-01-23 16:04:00,72.8,48.0,30.23,North,360,0.0,4.0,42,0.00,,,0.00,weatherlink.com 1.10,2013-01-23 21:04:00,
2013-01-23 16:19:00,72.6,47.0,30.23,East,87,5.0,6.0,41,0.00,,,0.00,weatherlink.com 1.10,2013-01-23 21:19:00,
2013-01-23 16:35:00,72.4,47.0,30.23,NE,54,0.0,3.0,40,0.00,,,0.00,weatherlink.com 1.10,2013-01-23 21:35:00,
2013-01-23 16:50:00,72.1,44.0,30.23,NE,53,4.0,9.0,37,0.00,,,0.00,weatherlink.com 1.10,2013-01-23 21:50:00,
2013-01-23 17:05:00,71.7,45.0,30.23,North,11,3.0,5.0,39,0.00,,,0.00,weatherlink.com 1.10,2013-01-23 22:05:00,
2013-01-23 17:19:00,71.2,44.0,30.24,East,91,1.0,5.0,38,0.00,,,0.00,weatherlink.com 1.10,2013-01-23 22:19:00,
2013-01-23 17:35:00,70.6,45.0,30.24,NNW,344,0.0,4.0,40,0.00,,,0.00,weatherlink.com 1.10,2013-01-23 22:35:00,
2013-01-23 17:50:00,69.9,46.0,30.24,NW,320,0.0,3.0,42,0.00,,,0.00,weatherlink.com 1.10,2013-01-23 22:50:00,
2013-01-23 18:05:00,68.9,47.0,30.24,NW,321,1.0,3.0,45,0.00,,,0.00,weatherlink.com 1.10,2013-01-23 23:05:00,
2013-01-23 18:20:00,67.9,47.0,30.25,NW,321,0.0,2.0,48,0.00,,,0.00,weatherlink.com 1.10,2013-01-23 23:20:00,
2013-01-23 18:36:00,66.8,48.0,30.24,NW,321,1.0,2.0,52,0.00,,,0.00,weatherlink.com 1.10,2013-01-23 23:36:00,
2013-01-23 18:51:00,65.9,49.0,30.25,NW,321,0.0,2.0,55,0.00,,,0.00,weatherlink.com 1.10,2013-01-23 23:51:00,
2013-01-23 19:05:00,65.2,48.0,30.26,NW,321,0.0,2.0,55,0.00,,,0.00,weatherlink.com 1.10,2013-01-24 00:05:00,
2013-01-23 19:21:00,64.8,49.0,30.26,NW,321,0.0,1.0,58,0.00,,,0.00,weatherlink.com 1.10,2013-01-24 00:21:00,
2013-01-23 19:35:00,64.5,49.0,30.26,NW,321,0.0,1.0,58,0.00,,,0.00,weatherlink.com 1.10,2013-01-24 00:35:00,
2013-01-23 19:50:00,64.3,49.0,30.27,NW,321,1.0,4.0,57,0.00,,,0.00,weatherlink.com 1.10,2013-01-24 00:50:00,
2013-01-23 20:05:00,64.1,48.0,30.27,NW,321,0.0,2.0,57,0.00,,,0.00,weatherlink.com 1.10,2013-01-24 01:05:00,
2013-01-23 20:20:00,63.9,49.0,30.28,NW,326,1.0,2.0,58,0.00,,,0.00,weatherlink.com 1.10,2013-01-24 01:20:00,
2013-01-23 20:35:00,63.5,48.0,30.28,NNW,336,2.0,4.0,57,0.00,,,0.00,weatherlink.com 1.10,2013-01-24 01:35:00,
2013-01-23 20:51:00,63.0,48.0,30.29,NNW,340,1.0,3.0,58,0.00,,,0.00,weatherlink.com 1.10,2013-01-24 01:51:00,
2013-01-23 21:06:00,62.6,48.0,30.29,NNW,333,1.0,3.0,59,0.00,,,0.00,weatherlink.com 1.10,2013-01-24 02:06:00,
2013-01-23 21:22:00,62.2,47.0,30.29,NNE,15,2.0,5.0,59,0.00,,,0.00,weatherlink.com 1.10,2013-01-24 02:22:00,
2013-01-23 21:36:00,62.0,47.0,30.29,NE,41,1.0,4.0,59,0.00,,,0.00,weatherlink.com 1.10,2013-01-24 02:36:00,
2013-01-23 21:51:00,61.6,46.0,30.29,North,355,2.0,4.0,58,0.00,,,0.00,weatherlink.com 1.10,2013-01-24 02:51:00,
2013-01-23 22:06:00,61.4,46.0,30.29,NNE,31,1.0,4.0,57,0.00,,,0.00,weatherlink.com 1.10,2013-01-24 03:06:00,
2013-01-23 22:21:00,61.4,46.0,30.29,North,9,0.0,4.0,57,0.00,,,0.00,weatherlink.com 1.10,2013-01-24 03:21:00,
2013-01-23 22:36:00,60.7,47.0,30.29,NNE,16,1.0,4.0,60,0.00,,,0.00,weatherlink.com 1.10,2013-01-24 03:36:00,
2013-01-23 22:51:00,60.9,48.0,30.28,East,98,3.0,7.0,62,0.00,,,0.00,weatherlink.com 1.10,2013-01-24 03:51:00,
2013-01-23 23:06:00,60.5,48.0,30.28,East,85,1.0,4.0,64,0.00,,,0.00,weatherlink.com 1.10,2013-01-24 04:06:00,
2013-01-23 23:22:00,59.7,49.0,30.28,East,97,2.0,5.0,67,0.00,,,0.00,weatherlink.com 1.10,2013-01-24 04:22:00,
2013-01-23 23:37:00,59.0,49.0,30.28,East,82,2.0,4.0,69,0.00,,,0.00,weatherlink.com 1.10,2013-01-24 04:37:00,
2013-01-23 23:53:00,58.6,49.0,30.27,East,90,0.0,3.0,70,0.00,,,0.00,weatherlink.com 1.10,2013-01-24 04:53:00,